Temp
26 25 24 24 25 25 25 25 25 26 26 25 25 24 24 24 24 26 26 25 26 25 26 27 27 27 27 26 26 25 25 25 23 23 23 22 22 22 22 22 23 22 21 20 19 19 18 17 17 17 17 17 18 17 17 17 17 17 17 17 17 17 17 17 17 17 17 17 18 18 18 18 18 18 18 18 18 18 19 19 19 19 19 19 19 19
25 24 24 25 25 25 24 25 25 25 25 25 25 24 24 24 24 26 25 25 26 25 26 27 27 27 27 26 26 25 25 24 23 22 22 22 22 22 22 22 22 21 20 20 20 19 18 18 17 17 18 18 18 18 17 17 17 17 17 17 17 17 16 17 17 17 17 17 18 18 18 18 18 18 18 18 18 18 18 18 18 19 19 19 19 19
24 24 24 24 24 24 24 25 25 25 25 25 25 24 23 24 25 25 25 25 25 25 25 26 26 26 26 26 25 25 25 24 23 23 23 22 22 22 22 22 21 21 20 20 20 20 19 18 18 18 18 18 18 18 18 18 18 17 17 17 17 17 17 17 16 17 17 17 17 17 17 17 17 17 17 18 18 18 18 18 18 18 19 19 19 19
23 23 24 24 24 24 25 25 25 25 25 25 25 23 23 24 24 23 24 25 25 25 25 26 25 25 25 25 25 25 25 23 23 24 23 23 22 22 22 21 21 21 20 20 20 20 19 19 18 18 18 18 18 18 18 18 18 18 18 17 17 17 17 17 17 16 17 17 16 16 17 17 16 17 17 17 17 17 18 18 18 18 18 19 19 19
23 23 24 24 24 25 25 25 25 25 24 25 25 24 23 24 24 23 24 24 25 25 25 25 23 23 24 24 24 24 24 24 23 24 23 23 23 22 22 21 21 21 21 20 20 20 20 19 19 18 18 18 18 18 18 18 18 18 18 18 18 17 17 17 17 17 17 17 16 16 16 16 16 16 16 16 16 17 18 18 18 18 18 19 19 19
24 23 24 24 24 25 25 25 25 24 23 23 24 24 24 24 24 24 24 24 23 22 24 25 21 21 23 24 24 24 24 23 23 23 23 23 23 22 21 20 20 21 21 21 20 20 20 20 19 18 18 18 18 18 18 17 17 17 18 18 18 18 17 17 17 17 17 17 17 17 17 17 16 16 16 16 17 17 17 18 18 18 18 19 19 19
24 24 24 24 24 25 24 25 25 24 23 22 23 25 24 25 24 24 24 23 21 21 24 25 21 21 22 23 24 23 23 23 23 23 22 23 22 21 21 21 21 21 21 20 21 21 20 19 19 19 19 19 18 18 18 18 18 17 17 17 17 18 18 17 17 17 17 17 17 17 17 17 17 17 17 16 17 17 17 17 17 18 18 18 19 19
24 24 24 24 24 24 24 24 24 24 23 22 24 25 24 25 24 24 24 23 22 22 23 24 23 21 21 23 25 23 22 22 22 21 22 22 23 22 22 22 22 22 21 21 21 21 20 20 19 19 19 19 18 18 18 18 18 17 17 17 17 18 18 17 17 17 17 17 17 17 17 17 17 17 17 17 17 17 17 17 17 18 18 18 18 19
24 24 23 24 24 24 24 24 24 24 23 23 24 24 24 24 24 24 24 22 23 23 21 22 23 21 20 23 25 24 22 22 22 22 22 23 23 23 23 23 22 22 22 22 21 21 20 20 19 19 19 18 18 18 18 18 17 18 17 17 17 18 18 17 17 17 17 17 17 17 17 17 17 17 17 18 17 17 17 17 17 17 18 18 18 18
23 23 23 23 23 23 24 24 24 24 23 23 24 24 24 24 24 24 24 23 23 21 20 21 22 21 20 22 23 23 22 22 23 23 23 23 23 23 23 23 22 22 22 22 22 21 20 20 19 19 18 18 18 17 17 17 17 18 18 18 18 18 18 17 17 17 17 17 17 17 17 17 17 17 17 18 18 17 17 17 17 17 17 18 18 18
23 22 22 22 23 23 23 23 23 23 23 23 24 24 24 24 24 24 24 23 21 20 20 21 22 21 21 21 23 23 22 23 24 24 23 23 23 23 22 22 22 22 22 22 21 21 20 19 19 18 18 18 18 17 18 18 18 18 18 18 18 18 17 17 17 17 17 17 17 17 17 17 17 17 17 17 18 17 17 17 16 17 17 17 17 18
23 22 22 22 22 22 23 23 23 23 23 23 24 23 22 22 22 22 22 22 20 20 21 22 22 22 20 21 24 25 24 25 25 24 24 24 23 23 22 22 22 22 22 21 21 20 20 19 18 18 19 18 18 18 18 18 18 18 17 18 18 18 17 17 17 17 17 17 17 17 17 17 17 17 17 17 18 18 17 17 17 17 17 17 17 18
23 23 22 22 22 22 22 22 22 23 23 23 23 22 21 20 20 20 20 20 20 20 21 22 22 21 20 22 25 25 25 25 25 25 25 25 24 24 23 22 22 22 22 21 21 20 20 20 19 19 19 18 18 18 18 18 18 18 17 17 18 18 17 17 17 17 17 17 17 17 17 17 17 17 17 17 18 18 18 18 17 17 17 17 17 18
22 22 22 22 22 22 22 22 21 22 23 23 22 21 20 20 20 19 20 20 20 20 21 22 21 20 21 23 26 25 25 25 24 24 24 24 24 25 23 22 22 22 22 21 21 20 20 20 19 19 19 18 18 18 18 18 18 18 18 18 18 17 17 17 17 17 17 17 17 17 17 17 17 17 17 17 18 18 18 18 18 18 18 18 18 18
20 20 21 22 21 22 22 22 22 22 22 23 23 22 21 20 19 19 19 20 20 20 21 21 21 20 20 22 25 25 24 23 23 22 23 22 23 24 23 23 22 22 22 21 21 20 20 20 19 19 19 18 18 18 18 18 18 18 18 18 18 17 17 17 17 17 17 17 17 17 17 16 17 17 17 17 17 18 18 18 18 18 18 18 18 18
20 20 21 21 21 22 22 22 22 22 22 22 24 22 21 21 20 19 19 20 20 20 20 20 20 22 22 22 24 23 23 23 22 22 22 22 22 23 22 22 22 22 21 21 21 20 20 20 19 19 18 18 18 18 18 18 18 18 18 17 17 17 17 17 17 17 17 17 17 17 17 16 16 17 17 17 17 17 17 17 17 18 18 18 18 18
20 20 21 21 21 22 22 22 22 22 21 22 22 21 21 23 22 20 20 20 19 19 20 20 20 22 23 23 24 23 23 23 22 22 22 22 22 22 22 22 22 22 21 21 21 21 20 20 19 19 18 18 18 18 18 18 17 17 17 17 18 17 17 17 17 17 17 17 17 17 17 16 16 16 16 16 17 17 17 17 17 17 17 17 17 17
20 20 21 21 21 21 21 21 22 22 22 21 21 21 22 22 22 21 20 19 19 19 20 20 20 21 21 21 23 23 23 23 23 22 22 22 22 21 22 22 22 22 21 21 21 21 20 20 19 19 19 18 18 18 18 18 17 17 17 17 17 17 17 17 17 17 17 17 17 17 17 16 16 16 16 16 16 17 16 17 17 17 17 17 17 17
21 20 21 21 21 21 21 21 21 21 22 22 21 22 22 20 20 20 19 19 19 19 20 20 20 20 20 21 22 23 23 23 23 23 22 22 22 21 22 22 22 21 21 20 21 20 20 20 19 19 19 18 18 18 18 18 18 18 17 17 17 17 17 17 17 17 17 16 16 17 17 16 16 16 16 16 16 16 16 16 17 17 17 17 17 17
21 20 20 21 21 21 21 21 20 20 21 22 22 22 22 20 20 20 20 20 19 19 19 20 20 20 21 22 23 23 23 23 23 23 23 23 23 22 22 22 21 21 20 20 20 20 20 20 19 19 19 19 19 18 18 18 18 18 17 17 17 17 17 17 17 17 16 16 16 16 16 16 16 16 16 16 16 16 16 16 16 17 17 17 17 17
21 20 19 20 21 20 20 21 21 21 21 21 21 21 21 21 20 20 20 20 20 19 19 19 19 20 22 23 23 22 23 22 22 22 22 23 23 22 22 21 21 21 20 20 20 20 20 20 19 19 19 19 19 18 18 18 18 18 17 17 17 17 17 17 17 17 16 16 16 16 16 16 16 16 16 16 16 16 16 16 16 17 16 16 16 16
21 20 20 20 20 20 20 20 21 21 21 21 21 21 21 21 20 19 19 20 20 20 20 19 19 20 22 22 22 22 22 22 22 22 22 22 22 22 21 21 20 20 20 20 20 20 20 20 19 19 19 19 19 19 18 18 18 18 17 17 17 17 18 18 17 17 16 16 16 16 16 16 16 16 15 15 16 16 16 16 17 17 16 16 16 16
21 20 20 20 20 21 20 20 20 20 20 21 21 21 21 21 20 19 19 20 20 20 20 20 19 20 22 22 22 22 22 22 22 21 21 22 22 21 21 20 20 20 20 20 20 20 20 20 19 19 19 19 19 19 19 18 18 18 18 17 17 17 18 18 17 17 16 16 16 16 16 16 16 15 15 15 15 15 15 16 16 16 16 16 16 16
20 20 20 19 20 21 20 20 19 19 19 20 20 21 21 21 20 20 20 20 19 19 20 19 18 20 22 22 21 22 21 22 22 21 21 22 21 21 20 20 20 20 20 20 20 20 20 19 19 19 19 19 19 19 18 18 18 18 18 18 18 18 17 17 17 17 16 16 16 16 16 16 15 15 15 15 15 15 15 15 15 15 15 16 16 16
19 20 19 19 20 20 19 19 19 19 19 20 20 21 21 21 20 20 20 20 19 19 20 19 18 20 21 21 21 22 22 22 22 22 22 21 21 21 21 20 20 19 19 19 19 19 19 19 20 20 20 19 19 19 19 18 18 19 18 18 18 18 18 17 17 17 17 16 16 16 16 15 15 15 15 15 15 15 15 15 15 15 15 15 15 16
20 20 19 19 19 19 19 19 19 19 19 20 20 20 20 20 20 19 19 19 18 19 20 19 19 21 22 22 22 22 22 22 22 22 22 22 21 21 21 20 20 19 19 19 19 19 19 20 20 20 20 19 19 19 19 19 19 19 18 18 17 17 17 17 17 17 16 16 16 16 15 15 15 15 15 15 15 15 15 15 15 15 15 15 15 15
20 20 20 19 19 19 19 19 19 19 19 19 19 19 19 20 20 19 19 19 19 19 19 19 20 20 21 22 21 21 22 22 22 22 22 22 21 21 20 20 20 20 19 19 19 19 19 19 20 20 20 19 20 19 19 19 19 19 18 18 17 17 17 17 17 17 16 16 16 16 15 15 15 15 14 14 14 14 15 14 14 14 14 14 14 14
20 19 20 19 19 20 20 20 19 19 19 19 19 19 20 19 19 19 18 19 20 19 18 20 20 20 20 21 21 21 22 22 22 22 22 22 22 21 21 20 19 19 20 20 19 19 19 19 19 20 19 19 19 19 19 19 19 19 18 18 18 17 17 17 16 16 16 16 15 15 15 15 14 14 14 14 14 14 14 14 14 14 14 14 13 13
19 20 20 19 19 20 20 19 19 19 18 19 19 19 19 19 19 18 18 19 19 18 18 20 20 20 20 21 21 22 22 22 22 22 22 22 21 21 21 20 20 20 20 20 20 19 19 19 19 19 19 18 19 19 19 19 19 19 18 18 18 17 17 16 16 16 16 16 15 15 15 14 14 14 14 14 14 14 14 14 13 13 13 13 13 13
20 20 20 19 19 19 20 19 19 19 18 19 19 19 19 19 19 19 19 19 19 19 19 20 19 20 21 21 22 22 22 22 22 21 21 21 21 21 21 20 20 20 20 20 20 20 19 19 19 19 19 18 19 19 18 18 19 18 18 18 17 17 17 16 16 16 16 16 15 15 15 14 14 14 14 14 14 14 14 14 13 13 13 13 13 12
19 19 19 19 18 19 20 20 19 19 18 18 18 19 19 19 19 19 19 19 19 19 19 20 19 19 21 22 22 22 22 22 21 21 21 21 21 21 21 20 20 20 20 20 20 20 19 19 20 19 19 18 18 18 19 19 18 18 18 18 17 17 17 16 16 16 16 16 15 15 15 15 14 14 14 14 14 14 14 14 13 13 13 13 12 11
18 19 19 18 18 19 20 19 19 19 18 18 18 19 19 19 19 19 19 19 19 19 19 19 19 20 22 23 22 22 22 22 21 22 22 21 21 21 21 21 21 21 21 20 20 20 19 19 19 19 19 19 18 18 19 19 18 18 18 18 17 17 17 16 16 16 16 16 15 15 15 15 15 15 15 14 14 14 13 13 13 13 13 12 12 11
19 19 19 18 17 18 19 19 19 19 18 18 19 19 20 20 20 20 20 20 20 19 19 19 20 21 22 22 22 22 22 22 22 22 22 22 22 21 21 21 21 21 21 21 20 20 20 19 19 19 19 19 18 18 19 19 18 18 18 18 17 17 16 16 16 16 16 16 15 15 15 15 15 15 14 14 14 13 13 13 13 13 12 12 11 11
19 19 19 18 17 18 19 19 18 17 17 18 20 20 20 20 20 20 20 20 20 20 20 20 21 22 22 22 21 21 22 22 22 22 22 21 21 21 21 21 21 21 21 21 20 20 20 20 19 19 19 18 18 18 18 19 18 18 18 18 17 16 16 16 16 16 15 16 15 15 15 15 15 15 14 14 13 13 13 12 12 12 11 11 11 11
19 18 19 18 18 18 19 18 16 16 18 20 20 20 20 20 20 19 20 20 21 21 21 21 21 21 22 22 22 22 22 22 22 21 21 21 21 21 21 21 21 21 20 20 20 20 20 19 19 19 18 18 18 18 18 18 18 18 17 17 17 16 16 16 16 16 15 15 15 15 15 15 15 14 14 13 13 12 12 12 11 11 11 11 11 10
19 18 18 18 18 17 17 17 16 18 20 20 20 20 19 18 19 18 19 20 21 21 21 21 21 21 22 22 22 22 21 21 21 21 21 21 21 20 20 21 20 20 20 20 20 20 20 19 19 19 18 18 18 18 18 18 18 17 17 17 17 17 16 16 16 16 16 15 15 15 15 15 14 14 13 13 12 12 12 11 11 11 11 11 11 10
19 19 18 17 17 17 17 17 18 19 19 20 20 20 19 19 19 19 18 19 21 22 22 21 21 21 22 22 22 21 20 20 20 21 22 22 21 20 20 20 20 20 20 20 20 20 19 19 18 18 18 18 18 17 17 17 17 17 17 17 17 17 16 16 16 16 16 15 15 15 15 14 14 13 13 13 12 12 11 11 11 11 11 11 11 10
20 19 18 17 17 17 16 17 17 17 18 19 20 20 20 20 20 19 18 19 21 22 22 22 21 21 21 21 21 20 20 20 21 22 22 22 21 21 20 20 20 20 20 20 20 19 19 18 18 18 18 17 17 17 17 17 17 17 17 17 17 17 16 16 16 16 16 15 15 15 14 14 13 13 13 12 12 11 11 11 11 11 11 11 11 10
19 19 19 17 16 16 16 16 17 17 18 20 20 20 20 19 19 19 19 19 22 22 22 22 21 21 21 21 20 20 20 21 22 22 21 21 21 21 20 20 20 20 20 20 20 19 19 18 18 18 17 17 17 17 17 17 16 17 17 17 16 16 16 16 16 16 16 15 15 14 13 13 13 13 12 12 12 11 11 11 11 10 10 11 10 9
18 18 18 17 16 17 16 16 17 18 19 20 20 20 20 20 20 19 18 19 21 22 22 22 21 21 21 21 20 20 20 21 21 21 20 20 20 20 20 20 20 20 20 20 20 19 19 18 18 18 17 17 17 17 16 16 16 16 17 17 16 16 16 16 16 16 16 15 14 13 12 12 12 12 12 12 12 11 10 10 10 10 10 10 10 10
17 18 18 17 17 17 17 16 18 19 20 21 21 20 20 19 19 18 18 20 22 22 21 21 21 21 21 20 20 21 21 21 20 20 20 19 19 19 20 20 20 20 20 20 19 19 19 18 18 18 18 17 17 17 16 16 16 16 16 17 16 16 16 16 16 16 15 15 14 13 11 11 12 12 12 12 11 11 10 10 10 10 10 10 10 9
17 17 17 17 17 18 17 17 17 19 21 21 21 21 20 18 18 19 20 22 22 21 21 21 21 21 21 21 21 21 21 21 20 19 20 20 19 19 19 19 19 19 20 19 18 18 18 18 18 18 18 18 17 17 16 16 16 16 16 16 16 16 16 16 16 15 15 15 14 14 12 11 11 11 12 12 11 11 11 10 10 10 10 10 9 9
18 17 17 18 18 18 18 17 16 18 20 21 20 19 18 18 20 21 22 22 21 21 21 21 21 21 21 21 21 21 21 21 20 19 19 19 19 19 19 19 19 19 19 19 18 18 18 19 19 18 18 18 17 16 16 16 16 16 16 16 16 16 16 16 15 15 15 14 14 14 13 11 11 11 12 12 11 11 11 10 10 10 10 9 9 8
19 18 18 19 19 18 17 17 18 20 21 20 20 20 19 20 21 22 21 21 22 21 21 21 21 21 21 21 21 21 21 21 20 20 19 19 19 19 19 19 19 19 19 19 19 18 18 18 19 18 18 17 17 16 16 16 17 16 16 16 16 16 15 15 15 15 14 14 14 13 13 12 11 12 12 12 11 11 11 10 10 10 10 9 9 9
19 19 19 19 19 19 19 20 21 22 21 20 21 21 21 21 22 21 20 21 21 21 21 21 21 21 21 21 21 21 21 21 21 20 20 19 19 19 19 19 19 19 19 19 19 18 18 18 18 18 17 17 16 16 16 17 17 16 16 16 16 15 15 15 15 14 14 14 14 13 13 12 12 12 12 12 12 12 11 10 10 10 10 9 9 9
20 20 19 19 20 20 20 20 21 21 21 21 21 21 21 21 21 21 20 20 21 21 22 21 21 21 21 21 21 21 21 21 21 20 20 19 19 19 19 19 19 18 19 19 18 17 17 18 18 17 17 16 16 16 16 17 17 16 16 16 16 15 15 15 14 14 14 14 14 13 13 13 12 12 12 12 12 12 12 11 11 10 10 10 9 9
19 19 18 19 19 19 19 20 21 21 21 21 21 21 21 20 21 21 20 20 21 21 21 20 20 20 20 20 20 21 21 21 21 20 20 20 19 19 18 19 19 18 18 18 18 17 17 18 18 17 17 16 16 16 16 16 17 17 16 16 16 15 15 15 14 14 14 14 14 13 13 13 13 13 12 12 12 12 12 11 11 11 10 10 10 9
17 17 18 18 19 18 19 20 21 21 21 21 21 21 21 21 21 21 20 20 20 20 20 20 20 19 20 20 20 20 21 21 21 21 20 20 20 19 19 19 19 18 18 18 17 16 17 17 17 17 17 16 16 16 16 16 17 17 16 16 15 15 15 14 14 14 14 14 14 13 13 13 13 12 13 13 12 13 12 12 12 11 11 11 10 10
14 15 17 18 19 19 19 20 20 20 20 21 21 21 21 21 21 20 20 20 20 20 20 20 20 19 20 20 20 20 21 21 21 21 21 20 20 19 19 19 19 18 18 17 17 16 17 17 17 17 17 17 16 16 16 16 16 16 16 16 15 15 15 14 14 14 14 14 13 13 13 13 13 13 13 13 13 13 12 12 11 11 11 11 11 11
13 14 16 18 18 18 19 19 19 19 19 19 20 20 21 20 20 20 20 20 20 20 20 20 20 20 20 20 20 20 20 21 21 21 20 20 20 20 20 19 18 18 17 17 16 16 17 17 17 18 18 18 17 16 16 16 16 16 15 15 15 15 14 14 14 14 14 14 13 13 13 13 13 13 13 13 13 13 12 11 10 11 11 10 10 10
15 15 15 15 17 17 17 17 18 18 18 19 19 19 20 20 20 20 20 20 20 20 20 20 20 20 20 20 20 19 19 20 21 20 20 20 20 20 19 19 18 18 17 17 16 17 17 17 17 18 18 18 17 16 16 16 16 15 15 15 15 15 14 14 14 14 14 14 14 13 13 13 13 13 13 13 13 13 12 11 10 10 10 10 10 10
Height
790 796 799 796 795 793 793 794 794 793 793 794 795 795 796 796 794 792 795 795 794 799 796 792 793 791 795 799 798 799 800 804 810 813 815 817 820 821 821 822 821 823 828 830 832 832 833 834 834 834 834 834 834 835 835 835 836 836 836 837 837 837 838 839 840 841 842 842 843 843 843 843 843 844 844 845 846 847 849 849 850 851 851 852 852 853
792 798 800 797 797 797 797 798 797 796 796 796 797 796 796 796 793 792 798 796 795 799 794 790 794 792 794 797 797 799 802 805 809 812 815 817 820 821 820 822 822 825 828 829 831 831 833 833 834 834 834 835 835 835 836 835 836 836 836 837 837 837 838 838 839 840 841 841 842 841 841 842 843 843 844 844 845 846 847 849 849 849 850 851 851 852
798 801 802 799 799 799 799 798 797 797 797 797 796 797 797 793 792 795 798 795 795 798 794 793 796 795 795 797 797 799 801 805 808 809 812 816 819 820 820 822 823 826 827 828 829 830 832 833 833 834 834 835 835 835 836 836 836 836 836 837 837 837 838 838 838 838 840 840 840 840 841 841 842 842 843 843 844 844 845 847 847 848 849 849 850 851
802 803 801 800 800 799 799 798 798 797 796 796 794 797 797 792 796 801 799 797 795 795 793 793 795 797 800 800 799 799 799 805 809 807 809 813 817 818 819 821 822 824 826 827 828 829 830 832 833 833 834 834 835 835 835 836 836 836 836 837 837 837 837 837 838 838 838 839 839 840 840 841 841 841 841 842 842 843 843 844 845 846 847 847 848 849
801 803 801 801 801 798 799 799 798 797 795 795 795 796 796 794 798 799 797 797 796 796 793 793 800 803 804 805 802 800 800 804 806 805 808 812 814 816 818 821 822 822 824 825 826 828 829 831 832 833 834 834 834 835 835 836 836 836 836 837 837 837 837 837 837 837 837 838 838 838 839 839 839 840 840 840 840 841 841 842 843 844 845 845 846 847
801 804 801 801 800 798 799 798 797 799 798 799 799 798 798 797 797 797 798 798 801 804 795 795 813 812 802 803 803 802 804 805 806 806 810 811 812 816 819 821 822 822 823 823 825 827 829 830 832 833 833 834 834 835 835 836 836 836 836 836 837 837 837 837 837 837 837 836 836 837 837 838 838 838 838 838 838 839 840 841 842 842 843 843 843 844
801 803 801 801 800 799 801 798 798 800 801 804 802 798 798 797 798 799 799 799 804 806 794 793 812 812 801 800 800 803 808 807 808 809 810 811 812 814 816 817 819 820 821 823 825 826 828 830 831 832 833 833 834 835 835 836 836 836 836 836 836 836 836 836 836 836 836 836 835 835 835 836 836 836 836 836 837 837 838 839 839 840 841 841 841 842
802 803 803 802 801 802 803 800 799 800 804 805 798 797 799 797 799 799 798 800 798 799 800 797 803 809 804 797 792 801 812 812 811 814 814 812 810 810 811 813 815 816 818 821 823 825 827 829 830 832 833 833 834 835 835 835 835 836 836 836 836 836 836 835 835 835 835 834 834 834 834 834 835 835 835 835 835 836 836 837 837 837 838 839 840 840
803 805 806 804 805 803 800 798 798 800 805 804 797 799 799 797 799 798 800 801 794 801 810 799 800 813 807 792 788 797 808 810 808 810 810 807 806 807 808 810 812 814 815 818 821 824 826 828 830 831 833 834 834 835 835 834 835 835 836 836 835 835 835 834 834 834 833 833 832 832 832 833 833 833 834 834 834 834 834 834 834 834 835 836 838 840
804 806 806 806 806 803 798 798 800 802 804 801 799 799 797 797 797 796 800 798 796 811 817 799 797 813 809 795 795 801 806 805 801 802 803 802 803 805 806 808 810 812 814 816 819 822 825 827 830 832 833 834 834 835 834 834 834 834 835 835 835 834 834 834 833 833 832 832 831 831 831 831 832 832 832 833 833 833 833 833 833 833 832 833 836 838
804 805 807 806 806 803 801 801 802 803 803 801 801 800 800 799 795 797 797 794 806 820 817 801 794 805 810 798 791 799 802 798 796 798 800 801 802 803 805 807 808 810 813 815 818 821 824 827 829 831 832 833 834 834 834 833 833 833 834 834 834 834 833 833 833 832 831 831 830 830 829 830 830 831 831 831 831 831 831 831 831 831 830 831 834 835
805 806 806 804 805 804 804 804 803 803 802 802 802 802 808 806 802 806 803 801 820 825 810 799 793 803 815 799 781 786 792 790 790 794 795 797 798 800 802 804 806 809 811 813 816 819 823 826 828 830 831 832 833 833 832 832 832 832 833 833 833 833 833 833 832 831 830 829 829 828 828 829 829 830 829 829 830 830 830 830 830 830 830 831 832 832
804 805 805 805 806 805 806 807 805 803 801 802 803 805 816 818 816 823 819 813 819 814 800 797 798 805 808 792 778 782 787 787 786 787 789 791 793 796 799 802 804 806 809 811 814 817 820 823 826 828 829 830 831 831 831 831 831 831 832 832 831 831 832 832 831 831 829 828 828 827 827 828 828 828 828 828 828 828 828 828 829 829 830 830 829 828
807 807 806 807 807 804 805 809 811 809 803 803 804 809 819 822 826 833 828 818 814 805 796 797 804 809 801 785 778 781 786 787 786 787 789 790 791 793 796 800 801 803 806 809 811 814 817 820 823 825 827 829 829 830 829 829 830 830 830 830 830 830 831 831 830 830 829 828 827 826 826 827 827 826 826 826 826 826 826 826 826 827 827 826 826 825
818 817 809 808 809 806 804 805 808 807 804 800 797 804 812 814 827 838 827 817 815 806 800 804 810 810 802 791 781 781 786 787 789 790 791 792 792 792 794 797 799 801 803 806 808 811 814 818 821 823 825 827 827 827 827 828 828 829 829 829 829 829 830 830 829 829 828 827 826 825 825 825 825 825 825 824 824 824 824 824 824 824 824 824 824 824
821 818 807 806 807 805 805 803 802 805 808 802 795 804 810 804 815 829 823 816 818 816 809 808 807 795 789 789 783 784 788 786 789 791 790 794 793 792 795 796 798 800 801 804 806 809 812 816 819 821 823 824 825 825 826 826 827 827 827 828 828 829 828 828 828 828 827 826 825 825 824 824 824 824 823 823 822 822 822 822 822 822 822 822 822 822
818 814 806 807 807 805 806 804 802 806 810 805 803 808 805 796 802 816 821 819 823 828 816 804 801 789 784 787 781 783 788 786 789 790 790 792 792 792 795 795 796 798 799 802 803 806 810 814 817 820 821 822 822 823 824 824 825 825 826 827 827 827 827 827 827 827 826 825 824 824 823 823 822 822 822 821 821 820 820 820 820 820 820 820 820 820
815 813 805 806 809 807 806 804 803 803 804 806 809 805 799 800 804 809 822 826 824 826 814 799 801 799 797 796 787 785 790 787 786 788 789 790 791 793 793 792 793 794 797 801 801 804 808 812 815 817 818 820 821 822 822 822 823 824 825 826 826 826 826 826 826 825 825 824 824 823 822 822 821 821 820 819 819 819 818 818 818 818 818 818 818 818
813 816 808 804 808 807 804 806 808 804 801 803 804 800 802 815 818 814 823 829 826 826 816 802 800 801 798 795 788 787 789 786 784 786 788 789 789 791 791 791 792 793 797 800 800 802 806 810 813 815 816 818 819 820 820 820 822 823 824 825 825 825 825 825 824 824 824 823 823 822 822 821 820 819 819 818 818 817 817 817 816 816 817 817 816 816
811 819 815 806 806 808 805 808 813 810 803 802 802 800 802 812 817 815 815 818 820 824 820 810 805 799 788 781 783 787 786 785 786 786 786 786 786 787 788 789 791 793 797 799 799 801 804 808 811 812 814 816 817 818 817 819 820 821 823 824 824 824 824 823 823 823 822 822 822 821 821 820 819 818 818 817 816 816 815 815 815 815 815 815 815 815
810 819 819 809 807 811 810 807 810 809 806 805 806 806 806 806 809 812 809 806 811 819 820 819 814 799 781 778 784 787 785 786 788 788 786 784 783 784 786 788 791 793 796 797 798 800 803 806 808 810 813 813 814 815 816 818 819 820 822 822 822 823 822 822 822 822 821 821 821 820 820 819 818 817 817 816 815 814 813 813 813 813 813 813 813 812
809 816 817 811 808 810 808 805 804 806 805 804 804 804 804 804 808 818 818 806 804 813 813 816 817 799 781 782 786 785 785 786 786 787 786 784 783 784 786 788 790 793 795 796 797 799 801 804 806 809 810 811 812 813 815 817 818 819 820 820 821 821 820 820 820 820 820 820 820 819 819 818 818 817 816 815 814 814 813 811 811 811 810 810 810 810
805 811 815 812 806 804 805 806 806 807 805 804 804 801 800 802 807 819 823 811 806 809 804 808 815 799 779 781 786 785 786 785 785 786 786 784 784 785 786 787 789 791 793 795 797 798 801 803 805 807 808 809 810 812 814 815 817 818 819 819 820 820 819 819 819 819 819 819 819 818 818 817 817 816 815 814 814 813 812 811 810 809 809 808 808 808
808 810 815 814 806 802 804 806 806 807 807 807 805 801 801 803 804 808 812 809 811 811 804 809 815 798 780 781 784 785 785 784 785 785 785 784 784 785 786 787 788 790 792 794 796 798 800 802 804 805 806 807 809 811 813 814 815 816 817 818 818 818 819 818 818 818 818 818 818 817 817 816 816 815 814 814 814 813 812 811 809 809 808 807 806 805
809 811 814 816 813 811 812 812 811 811 811 807 802 800 801 802 803 806 806 808 815 811 804 812 814 795 782 783 783 783 783 783 783 782 782 784 783 784 785 786 787 789 790 793 795 797 799 800 801 802 804 806 808 809 811 812 813 814 815 816 816 817 817 817 817 817 817 817 817 816 816 816 815 814 814 814 813 812 811 810 809 808 807 806 805 804
805 808 810 815 817 817 816 814 813 811 809 806 802 802 804 803 805 809 809 812 817 808 802 809 807 790 780 780 781 782 781 781 781 779 779 781 782 783 784 785 787 787 789 791 794 795 797 798 799 800 802 804 805 807 808 809 811 812 813 814 815 816 816 816 816 816 816 816 816 815 815 814 814 814 813 813 812 812 811 810 809 808 807 806 804 803
802 804 805 808 810 810 809 807 806 807 807 807 806 805 805 804 804 807 812 813 809 805 803 801 797 792 785 782 782 782 780 779 779 778 778 778 780 782 783 784 785 786 787 789 791 793 795 796 797 798 800 803 803 805 806 806 808 810 811 813 814 815 815 815 815 815 815 815 815 814 814 813 813 813 813 812 812 811 811 809 809 808 806 806 804 803
804 806 804 805 806 803 803 803 803 806 807 806 805 804 802 803 804 808 812 806 801 807 807 794 790 795 790 782 781 780 777 776 776 776 776 776 777 780 781 782 784 784 785 786 788 791 792 794 795 797 800 801 802 804 804 805 807 808 809 811 812 813 814 814 815 814 814 814 814 814 813 813 813 812 812 812 811 811 810 809 809 808 807 806 804 803
803 804 800 803 806 801 800 802 801 805 806 804 803 803 801 801 804 807 807 800 798 806 803 791 789 792 786 780 778 775 773 774 774 774 774 775 776 777 778 780 782 782 783 784 786 788 790 792 794 796 798 800 801 802 803 804 805 807 808 810 810 811 813 813 814 813 813 813 813 813 813 813 812 812 812 812 811 811 810 809 809 808 807 806 805 803
799 800 797 802 806 801 798 800 800 803 804 803 802 802 800 799 799 800 800 796 796 798 793 789 791 789 781 777 774 771 770 772 772 773 774 774 775 775 776 778 779 779 780 781 782 784 787 790 791 794 797 798 800 801 802 803 804 805 807 808 809 811 812 812 813 813 813 813 813 813 813 812 812 812 812 811 811 810 809 809 808 808 807 806 805 804
800 799 797 802 806 801 795 796 799 801 803 802 800 797 796 797 796 795 795 793 794 794 789 789 793 788 777 770 768 768 769 770 771 772 772 772 772 773 774 775 775 776 777 778 779 782 784 787 789 792 794 796 798 799 800 801 802 804 805 807 808 809 810 811 812 812 812 812 812 812 812 812 812 812 812 811 811 810 809 809 808 807 807 806 806 805
801 801 799 804 809 801 792 795 798 797 799 801 798 794 793 793 792 791 789 789 790 791 789 791 792 784 771 764 766 767 767 769 770 769 769 769 769 770 772 772 772 772 773 774 776 779 782 784 787 790 792 794 796 797 798 799 801 802 803 805 807 808 809 810 811 811 811 811 812 812 811 812 811 811 811 811 811 810 809 808 808 807 807 807 806 806
796 799 798 804 810 801 792 796 798 797 802 800 789 784 785 785 785 784 783 783 783 785 788 789 783 774 766 765 768 767 766 766 766 765 765 766 766 768 769 768 768 768 769 771 774 776 779 782 785 788 790 792 794 795 796 798 799 800 802 804 806 807 809 809 809 810 810 810 811 811 811 811 810 810 811 810 810 810 809 808 807 807 807 807 806 807
793 795 796 800 807 802 793 794 800 804 805 793 777 774 778 780 781 783 781 779 777 777 779 777 770 766 765 766 767 766 764 763 763 762 763 764 765 766 766 766 766 766 767 769 771 774 777 780 783 786 788 790 792 794 795 796 797 799 801 803 805 807 808 808 808 809 810 810 810 810 810 810 810 810 810 810 810 809 808 808 807 807 807 807 806 807
793 796 795 797 803 801 793 799 811 810 794 779 771 772 775 776 778 780 777 773 771 771 771 769 767 765 763 763 762 762 761 760 761 762 762 762 763 764 764 764 764 765 766 767 769 772 775 778 781 783 786 789 791 793 795 795 796 799 801 802 804 805 806 806 807 808 809 809 809 809 809 809 809 810 810 809 809 809 808 807 806 807 807 807 807 807
791 795 795 796 800 801 801 807 810 796 777 771 771 772 775 779 779 780 779 772 766 765 766 766 765 762 760 760 759 758 760 761 761 760 759 760 761 762 763 763 763 764 765 765 768 771 773 776 779 782 785 787 790 792 794 795 797 799 800 801 802 803 804 805 806 806 807 808 808 808 809 809 809 810 809 809 809 808 808 807 806 807 807 807 808 807
783 790 795 798 798 800 803 802 794 784 778 774 771 769 772 775 774 777 781 773 760 757 759 760 761 760 759 759 759 759 760 762 761 756 753 755 758 760 761 761 762 763 763 765 767 770 772 775 778 781 784 786 789 791 792 794 796 798 799 800 801 802 803 804 804 804 806 807 808 808 809 809 809 809 809 809 808 808 807 807 807 807 807 807 808 808
778 783 791 798 798 799 803 800 794 793 788 776 768 766 766 769 769 772 778 772 757 751 755 756 758 759 758 758 760 761 762 763 759 752 751 754 756 757 759 760 761 762 763 764 767 769 772 775 777 780 783 785 787 789 791 793 795 797 797 798 799 801 802 803 803 803 804 806 806 807 808 809 809 809 809 808 808 808 808 807 807 808 808 808 808 808
780 780 783 793 798 799 803 802 797 794 784 770 765 764 765 768 768 770 777 771 754 750 753 755 756 758 757 758 760 761 762 762 756 751 753 755 754 755 757 758 760 761 762 763 765 768 771 774 776 779 781 784 786 788 790 792 794 795 796 797 798 799 800 801 802 802 803 804 806 807 808 809 809 809 809 808 808 808 808 807 808 808 808 808 809 808
784 782 783 792 796 794 797 796 789 781 773 765 763 763 765 766 767 776 785 772 753 751 754 753 755 757 756 757 759 760 761 759 755 754 756 756 755 756 757 758 759 761 761 763 765 767 769 773 775 778 780 782 784 786 788 790 791 793 794 795 796 798 799 800 801 801 802 804 806 807 808 809 809 809 809 809 808 808 808 808 808 809 809 809 809 809
783 782 782 787 787 786 792 793 784 772 762 758 759 760 762 766 774 783 781 762 749 752 753 752 754 755 754 757 758 756 755 755 755 756 756 756 756 757 757 758 759 760 761 763 764 766 769 771 774 775 777 780 781 784 786 788 789 791 792 793 795 797 797 799 800 800 802 803 805 807 808 809 809 809 809 809 809 809 809 808 808 809 809 809 810 810
781 781 780 781 781 779 782 786 785 772 756 750 754 756 761 771 777 771 758 749 749 753 752 752 754 754 754 756 755 753 753 754 756 756 756 756 757 756 757 758 759 759 761 763 765 766 768 769 771 774 775 777 780 782 784 786 787 789 791 792 794 795 796 797 799 800 802 803 804 805 807 808 809 808 809 809 809 809 808 808 809 809 810 810 810 810
771 777 777 774 774 775 778 784 787 775 755 749 755 760 764 768 763 751 746 747 750 751 751 752 752 752 753 754 753 752 753 753 755 756 756 756 756 756 757 757 758 759 760 762 764 765 766 767 769 771 773 775 778 780 782 784 786 787 789 791 793 794 795 796 798 799 801 802 803 804 806 808 808 808 809 809 809 809 808 809 809 810 810 811 811 811
761 767 768 764 763 770 775 776 771 759 748 748 753 756 758 756 748 746 749 749 748 749 751 751 750 750 752 751 751 752 751 752 754 754 754 755 755 756 757 757 757 758 759 760 762 763 765 766 767 769 772 774 776 778 780 782 784 786 788 790 791 793 795 796 798 799 800 802 803 804 806 807 807 808 808 809 809 809 808 809 810 810 811 811 812 812
756 755 759 758 756 758 759 755 748 743 744 747 746 745 748 747 745 748 750 749 749 749 748 748 749 749 749 749 750 750 750 750 752 752 753 754 754 755 756 756 757 758 758 760 761 763 764 765 766 769 771 772 774 777 778 780 782 784 787 788 790 792 794 795 797 798 800 801 801 803 805 806 806 807 807 808 809 808 808 809 810 810 811 812 812 812
751 751 756 756 752 751 749 745 744 743 744 745 744 744 745 745 745 746 748 748 748 746 745 746 747 746 747 748 748 749 749 749 750 751 752 752 753 754 755 755 756 757 758 759 760 762 763 764 766 768 770 771 774 775 777 779 781 783 785 787 790 792 793 795 796 798 799 800 800 802 803 804 805 806 806 807 808 808 808 809 809 810 811 811 812 813
753 753 756 755 753 755 753 745 741 742 742 742 743 742 743 744 744 745 746 746 745 745 745 745 745 745 746 747 747 747 747 747 748 750 750 751 752 753 754 755 755 756 757 757 759 762 763 764 765 767 768 770 772 774 776 778 779 782 784 786 789 791 792 794 795 797 798 798 799 801 802 803 804 804 805 806 807 807 808 809 809 810 811 811 812 813
762 759 757 754 752 753 751 742 739 740 739 739 741 741 740 741 742 743 744 744 744 745 745 744 744 745 745 744 745 745 745 745 747 748 748 749 750 750 752 753 754 754 755 757 758 761 762 763 764 765 767 769 771 773 775 777 778 781 783 785 788 790 791 793 795 796 797 797 798 799 800 801 803 803 804 805 806 806 807 808 809 809 810 810 811 812
773 769 759 752 751 750 747 742 741 743 741 739 740 740 739 740 741 742 743 743 743 744 743 743 743 743 742 743 743 743 743 743 744 745 746 747 747 748 749 750 752 753 754 755 757 759 761 762 763 765 766 768 770 772 774 776 778 780 782 784 787 789 790 792 794 795 796 796 797 798 799 800 801 802 803 804 805 806 806 807 808 809 809 810 810 811
774 769 759 754 753 751 748 745 745 748 747 744 742 740 740 740 741 742 742 742 742 742 742 742 742 741 741 741 741 741 742 741 741 743 744 745 745 746 747 748 750 752 753 755 756 758 759 761 762 764 765 767 769 771 773 775 777 779 781 783 786 788 789 791 792 794 795 795 796 797 798 799 800 801 802 802 803 804 805 806 808 808 808 809 810 811
766 765 764 763 757 752 750 749 748 749 749 746 745 743 741 740 741 742 741 741 740 740 740 741 740 740 739 739 739 740 740 739 739 741 742 743 744 745 746 747 748 749 751 754 755 756 758 760 761 763 764 766 768 770 772 774 776 778 780 782 784 786 788 789 791 792 793 794 795 796 797 798 798 800 800 801 802 803 804 805 807 808 808 809 810 811
Wind_Speed
4 4 4 3 1 0 2 3 5 4 2 3 4 4 4 5 4 2 1 1 2 8 11 13 12 11 11 12 12 11 12 12 11 11 10 8 8 7 7 7 6 6 5 5 5 5 5 5 5 5 5 4 4 3 2 2 1 1 0 1 3 4 5 5 5 7 8 8 8 10 11 12 12 11 11 11 12 12 11 12 12 11 12 12 13 14
5 3 2 3 4 3 3 2 2 2 2 3 5 5 5 6 3 3 1 1 4 8 9 10 12 10 10 11 11 12 13 13 13 13 12 11 10 8 8 8 7 6 5 6 6 5 6 6 5 4 4 4 3 3 2 2 1 1 1 1 2 3 4 5 6 7 8 8 10 12 12 13 12 10 10 11 11 12 11 12 14 14 12 12 13 14
4 2 5 4 3 1 0 0 2 3 4 4 5 5 5 5 3 3 2 1 5 8 7 10 12 9 9 10 11 13 13 11 11 12 12 12 10 9 8 8 7 7 6 6 6 6 6 6 5 5 4 4 3 3 3 3 2 1 1 2 3 4 4 5 6 8 8 8 10 12 12 12 12 11 11 12 12 13 14 13 14 17 17 14 13 13
2 4 5 3 1 2 2 2 4 4 5 5 5 6 6 4 4 3 3 3 6 7 5 9 11 7 7 9 10 12 12 10 11 13 12 11 10 9 8 7 7 8 7 6 6 6 6 6 5 5 4 4 4 3 3 3 3 2 2 2 2 3 4 6 7 8 8 9 9 10 11 11 11 12 12 12 12 14 16 15 14 16 17 17 14 14
4 6 3 0 1 3 2 3 5 6 5 4 4 6 6 3 5 4 2 3 6 6 5 8 9 6 8 11 10 10 10 11 12 12 12 12 11 9 7 6 6 7 6 6 7 6 6 6 5 5 5 4 4 4 4 3 3 2 2 2 2 2 3 5 7 8 9 9 10 9 9 9 10 11 11 12 13 14 15 16 16 16 16 17 17 16
6 5 1 3 3 3 4 4 3 5 5 4 3 4 5 5 4 3 2 4 6 6 8 10 9 7 10 13 11 9 10 11 11 12 12 12 12 10 8 8 7 7 6 6 7 6 6 6 5 6 5 5 4 4 4 3 2 2 2 2 2 1 2 4 5 7 9 10 11 11 10 9 10 10 11 12 13 14 15 16 17 16 16 17 18 18
4 3 1 2 3 3 5 4 1 4 7 4 1 2 4 5 5 5 5 7 6 2 5 9 9 6 9 13 12 11 12 13 11 12 13 12 12 11 10 9 9 9 8 7 7 7 7 6 6 6 5 5 5 4 4 3 2 1 1 1 1 1 2 4 4 6 8 10 12 13 13 12 12 12 12 13 13 14 15 15 17 17 17 18 18 18
4 3 3 3 5 5 6 4 1 3 8 3 2 2 6 6 6 7 7 7 5 2 2 8 10 7 6 10 13 14 14 15 14 14 14 13 13 12 11 10 10 9 9 8 8 8 8 7 6 5 5 4 4 4 4 3 3 2 1 0 0 1 2 4 5 6 8 10 12 13 14 13 14 14 14 14 14 16 16 15 17 19 20 20 19 19
2 2 2 3 6 6 5 2 2 4 7 2 2 3 6 6 7 7 7 7 5 3 5 8 8 9 7 6 11 13 14 16 17 16 16 15 13 12 11 11 10 10 9 9 9 9 9 8 6 5 5 4 4 4 4 4 3 3 2 1 1 1 2 4 5 6 8 10 11 12 13 12 13 13 14 14 14 15 16 17 18 19 19 20 21 21
1 1 3 5 6 4 3 1 0 5 4 1 1 5 5 6 7 7 7 7 5 6 8 7 9 9 8 6 8 10 11 14 14 13 13 13 12 12 11 11 11 10 9 9 9 10 10 9 7 5 5 4 4 4 4 4 3 3 3 2 2 1 2 4 5 6 7 9 10 12 12 11 11 12 13 14 13 13 16 17 17 18 19 18 21 22
2 1 1 4 5 5 4 1 1 3 2 1 4 7 7 7 7 6 6 6 6 6 9 11 9 8 8 6 7 8 9 11 11 10 11 13 13 12 11 11 12 11 10 9 10 11 11 10 8 7 6 5 5 5 4 4 3 3 2 2 2 2 2 3 5 6 7 8 9 11 11 11 11 11 12 13 14 13 15 16 15 17 20 19 21 22
3 5 3 1 2 4 5 5 3 2 3 5 6 7 7 7 6 6 7 6 7 8 8 9 9 8 9 7 5 6 8 11 12 11 13 15 15 13 12 12 12 11 11 10 10 10 11 10 10 8 7 6 6 5 5 4 4 3 2 2 2 2 2 2 4 5 6 7 8 9 10 11 11 12 13 13 14 14 15 16 16 17 19 20 21 20
4 3 1 2 2 3 7 6 5 6 6 7 7 7 7 6 5 6 7 6 8 7 4 4 6 8 9 8 5 4 6 9 10 10 12 13 15 14 13 12 12 11 11 11 10 10 10 11 11 10 9 8 7 6 5 4 4 3 2 1 1 2 2 2 3 5 6 6 7 8 9 10 11 12 13 13 13 14 14 15 17 17 18 19 18 17
3 3 4 5 4 2 6 6 5 5 6 7 7 6 7 7 6 7 7 6 7 6 4 4 4 8 8 7 6 5 4 3 3 5 6 7 11 12 13 13 12 13 13 11 11 10 10 11 11 10 10 9 7 7 5 4 4 3 2 1 1 1 1 2 3 5 6 6 6 8 8 9 10 12 13 13 13 13 13 14 15 16 16 16 16 16
4 2 4 4 1 1 5 4 4 5 6 7 5 6 8 6 4 5 6 6 6 5 4 5 4 7 6 1 2 2 1 1 1 3 4 5 7 8 10 13 13 13 13 12 11 11 11 12 11 10 9 9 8 7 6 5 4 3 2 1 1 1 2 3 4 4 5 5 5 6 6 7 9 11 12 13 13 13 13 14 14 14 14 15 15 16
6 3 3 2 1 2 4 1 3 6 6 4 3 7 7 4 4 4 4 4 5 5 5 5 5 5 2 4 5 3 2 3 3 3 5 6 7 8 9 12 12 12 12 12 12 11 12 12 11 10 10 9 7 6 5 5 4 3 2 1 1 2 3 3 4 4 5 5 4 5 5 6 8 10 11 12 13 13 13 14 15 15 15 15 16 15
6 2 6 3 2 1 3 2 2 5 3 2 4 5 2 2 4 6 3 1 2 7 7 6 7 5 4 5 7 6 5 5 5 5 5 6 8 9 10 11 12 13 13 13 12 12 12 13 11 11 10 8 7 6 5 5 4 3 1 1 2 3 4 4 4 5 5 5 4 5 5 6 7 9 11 12 13 13 13 14 14 15 14 15 16 16
5 3 6 5 3 4 0 3 3 3 4 3 3 1 2 1 4 6 5 3 5 8 7 7 9 8 7 5 5 6 6 7 7 6 5 6 7 10 10 11 13 13 13 13 13 12 13 13 12 11 9 8 8 6 5 4 3 2 2 2 3 4 5 5 5 5 5 5 5 5 5 6 7 8 10 12 12 13 13 14 14 15 15 15 16 16
3 5 4 5 3 4 4 5 4 3 4 5 3 1 2 3 4 5 5 5 7 7 6 8 9 7 8 6 4 5 7 7 6 4 5 7 8 9 9 10 12 12 12 12 12 11 11 13 13 11 9 9 9 6 4 4 3 3 3 3 4 5 5 5 6 6 6 5 5 5 5 6 6 6 8 9 11 13 14 15 15 16 16 16 17 17
2 5 2 5 3 2 4 6 4 4 5 4 4 3 4 4 3 4 4 4 6 6 6 7 7 6 5 3 2 3 4 4 5 4 6 8 8 8 8 9 10 11 12 12 11 10 11 13 13 11 10 9 8 6 4 4 4 4 4 5 5 5 5 6 6 7 7 6 6 6 6 6 6 6 7 7 9 11 13 14 14 15 16 16 16 17
3 4 3 4 5 4 5 3 3 4 3 4 5 5 5 3 3 4 5 5 6 6 6 7 7 5 1 3 1 3 4 4 5 6 7 8 7 8 7 8 9 10 11 12 11 10 12 13 12 11 10 8 7 5 4 5 5 6 6 5 5 5 6 6 6 6 7 6 6 7 7 7 7 7 7 7 7 8 10 12 13 13 14 15 15 16
4 3 4 4 4 5 2 2 1 4 4 5 4 4 5 4 4 5 6 6 5 6 7 7 8 6 2 3 2 4 3 2 2 4 5 6 6 6 7 8 9 10 11 12 11 10 11 12 12 11 10 8 5 5 6 6 7 7 7 6 5 5 5 5 5 6 6 7 6 7 7 8 8 8 7 7 8 8 9 11 11 12 13 14 14 15
1 3 6 6 6 4 1 3 0 3 4 7 6 5 5 4 5 6 6 4 4 6 6 7 9 6 2 2 1 2 1 1 2 3 5 4 4 4 6 8 9 10 11 11 11 10 11 12 11 11 9 7 6 7 8 8 8 8 7 6 6 5 5 6 6 6 6 6 6 7 7 8 8 8 7 7 7 8 9 10 10 11 12 13 14 15
2 4 6 6 6 4 2 4 3 3 5 7 7 6 6 5 5 6 6 5 5 6 6 6 9 6 2 4 3 2 2 3 3 3 5 5 3 3 5 7 8 9 10 11 11 10 11 12 12 11 9 7 8 9 9 9 9 8 8 8 7 6 5 6 6 6 6 6 6 7 7 8 8 7 7 6 7 8 8 8 9 9 10 12 13 14
4 4 5 6 6 5 5 5 5 5 5 6 6 6 6 7 7 5 5 5 6 9 9 8 8 5 2 5 4 4 5 6 6 5 5 5 4 3 4 6 7 8 10 12 12 12 12 12 12 11 9 9 10 10 10 10 10 9 9 9 8 7 6 6 5 6 6 6 7 7 7 7 8 8 7 6 6 7 7 7 8 7 8 10 12 13
4 4 4 6 7 6 5 4 2 2 3 5 6 6 8 9 9 7 6 6 7 8 8 8 8 8 3 3 4 6 6 7 7 6 6 5 4 4 4 5 7 8 10 12 13 12 12 11 12 11 10 10 11 11 11 11 10 10 10 9 8 7 6 6 6 6 7 7 7 8 7 7 7 8 7 6 6 6 7 7 7 7 7 8 10 11
4 5 6 8 8 7 7 6 4 3 5 6 7 8 9 9 10 8 6 7 7 6 8 9 9 11 10 7 7 8 8 7 6 6 6 5 4 4 5 6 7 8 10 11 12 12 12 11 11 11 11 11 11 11 11 11 11 11 11 10 9 7 6 6 6 7 7 7 7 8 7 7 7 7 6 5 5 5 5 5 5 6 6 7 7 8
4 6 8 10 10 9 10 9 6 5 8 9 9 10 10 9 10 10 9 10 8 7 8 8 8 11 12 10 10 10 9 8 7 7 7 6 5 5 6 7 8 9 10 12 13 13 13 12 11 12 12 12 11 12 11 11 12 12 12 11 10 9 7 7 6 7 7 7 7 7 6 6 5 5 4 3 3 3 3 4 5 6 6 7 7 7
6 7 7 8 10 10 10 10 8 8 9 10 10 11 11 11 12 13 13 13 11 9 10 11 12 14 13 12 12 11 9 8 8 7 7 7 7 7 8 9 10 11 12 13 14 14 14 13 11 12 13 13 12 12 12 12 13 12 12 11 11 10 8 7 7 7 7 7 7 6 5 4 3 2 2 2 3 3 3 4 4 5 6 7 7 7
6 5 5 6 9 10 10 9 8 9 11 11 12 13 13 13 14 14 15 15 15 15 15 15 17 17 14 13 13 10 6 5 5 6 6 7 8 9 9 10 11 12 13 14 15 15 14 14 13 14 14 14 14 13 13 13 13 13 13 12 11 10 8 7 7 7 7 7 6 5 4 3 2 2 3 3 4 4 4 4 4 5 5 6 7 7
6 4 4 5 7 9 9 8 7 9 11 12 13 13 13 14 14 15 15 14 14 16 17 16 16 14 12 11 10 7 5 5 6 6 6 7 8 8 10 11 12 12 13 14 15 15 15 15 14 15 15 15 14 14 13 13 13 13 13 12 11 9 8 7 7 7 7 7 6 5 4 3 3 3 4 5 5 5 5 5 5 5 5 4 6 6
6 5 4 5 7 8 6 6 7 8 10 13 15 15 15 15 14 13 13 12 13 14 15 14 12 10 8 7 6 6 7 8 8 8 7 7 7 8 10 11 12 13 13 14 15 15 16 15 15 15 16 15 15 15 14 14 14 13 13 12 11 9 8 7 7 7 7 6 5 5 5 4 4 5 5 5 6 5 5 5 4 4 3 2 3 4
8 7 5 5 7 7 5 5 6 7 9 11 10 9 10 10 10 11 11 12 14 13 11 10 8 8 8 7 7 8 8 8 8 7 7 7 7 8 9 11 11 13 13 13 14 15 16 15 15 16 17 16 15 15 15 14 13 13 12 11 10 8 7 7 7 6 7 6 6 5 5 5 5 5 5 5 6 6 5 5 3 3 3 1 2 2
9 9 6 5 6 8 6 4 6 8 10 6 1 2 3 5 7 9 10 11 12 12 11 11 10 11 11 9 9 9 8 7 7 6 5 6 6 7 9 10 10 11 12 13 14 14 14 15 17 17 17 16 16 15 14 14 13 12 12 11 10 9 8 7 6 6 7 6 6 6 6 6 6 6 5 5 6 6 6 4 2 2 2 1 1 1
9 9 7 6 6 7 6 4 7 9 6 1 1 2 3 6 8 10 12 13 13 13 14 15 14 14 13 11 9 9 8 7 7 7 7 7 7 7 8 8 9 10 11 12 13 13 14 16 17 17 16 17 16 15 14 13 12 12 12 11 10 9 8 7 7 7 7 6 6 6 6 6 6 5 5 6 6 5 5 3 1 1 2 0 1 0
9 8 6 6 6 6 5 6 8 8 4 4 7 4 1 3 6 7 9 11 12 13 13 14 14 13 11 9 7 6 6 6 6 8 9 9 8 8 8 7 7 9 10 11 12 14 15 17 18 17 17 17 16 15 14 13 12 12 12 11 10 10 9 8 8 8 7 7 7 6 6 6 5 5 6 6 6 4 3 1 1 1 1 1 1 2
10 8 6 7 7 6 7 8 8 9 9 9 9 4 4 3 2 1 5 8 8 10 10 11 11 9 7 6 5 4 3 4 6 7 7 8 9 9 8 7 6 8 10 11 13 15 16 17 17 16 16 16 16 16 15 14 13 13 12 12 11 10 9 9 9 9 8 7 7 6 6 6 5 6 6 6 5 3 2 0 1 0 1 2 3 3
11 9 7 7 6 5 7 9 8 10 9 5 2 5 6 2 2 2 7 8 5 5 7 8 7 5 4 4 2 2 3 5 6 3 4 6 7 9 9 7 7 9 11 13 14 15 15 16 15 15 15 16 17 16 15 14 14 14 14 13 12 10 10 9 10 9 9 9 8 6 5 5 5 6 6 5 3 2 1 1 0 1 2 3 4 5
11 9 8 8 6 6 7 8 8 8 7 4 1 6 8 5 2 3 8 5 2 4 3 4 3 2 2 2 2 3 4 6 5 1 3 3 5 7 8 8 8 9 11 13 14 14 14 14 14 15 15 16 17 17 16 15 15 15 14 13 12 11 11 10 10 10 10 9 7 5 3 4 5 5 5 3 1 1 1 0 1 2 3 4 5 6
10 9 9 9 9 8 9 9 8 7 6 4 2 5 8 5 1 6 7 2 5 6 3 2 1 0 1 1 3 4 5 5 4 3 4 1 2 4 6 7 8 9 10 12 13 13 13 14 15 16 16 17 18 17 16 16 15 15 14 13 13 12 11 11 11 11 10 8 6 5 3 3 5 3 3 2 1 1 1 1 3 4 5 5 5 6
8 8 9 10 10 10 10 9 8 7 7 7 7 7 9 4 3 7 6 1 4 3 2 2 1 1 2 2 2 3 2 3 3 3 2 1 1 3 6 7 8 9 10 11 11 12 13 14 15 16 17 18 18 17 17 16 15 15 15 13 12 12 12 12 11 11 10 8 7 6 4 2 3 3 3 3 2 2 2 2 3 5 6 6 6 7
7 7 8 9 10 9 9 9 9 8 6 6 7 8 9 4 6 6 2 3 3 1 1 2 2 1 2 2 2 3 2 2 1 1 1 1 2 3 5 7 8 9 10 10 11 13 13 14 15 16 17 17 17 16 17 17 15 14 14 13 12 12 12 11 11 10 10 8 8 7 5 3 2 3 4 3 3 2 3 4 4 5 5 6 7 9
6 6 7 8 8 8 8 8 9 7 3 6 7 7 8 7 5 2 1 2 1 1 1 2 1 1 2 2 1 2 2 1 2 2 3 4 4 3 5 7 8 10 11 12 14 15 15 15 16 17 16 16 16 16 17 17 16 14 13 12 12 11 10 10 11 10 9 8 8 7 6 5 4 4 5 4 4 3 4 5 5 4 5 7 10 12
7 8 8 6 6 7 8 8 8 5 3 10 8 5 7 8 3 3 2 2 1 2 3 2 2 2 3 3 2 3 3 2 2 3 4 5 5 4 5 6 8 10 12 14 14 15 15 14 14 15 14 14 15 16 17 18 16 14 13 12 10 9 9 10 10 10 9 8 8 7 7 6 6 6 5 5 4 4 5 5 5 5 7 8 11 14
6 6 5 4 6 8 7 6 6 4 3 8 7 3 5 8 5 2 4 5 5 4 4 4 4 3 3 3 4 3 3 3 2 3 3 4 5 6 6 7 8 10 11 12 13 13 15 14 14 14 14 14 15 15 17 17 16 14 13 10 9 9 10 10 10 10 9 9 9 8 8 7 7 7 6 5 5 4 5 6 6 6 8 9 11 13
5 4 3 4 6 9 10 9 8 7 5 7 8 6 5 6 6 5 6 7 6 5 5 5 5 4 4 4 4 4 5 4 3 3 4 4 4 5 6 7 8 9 10 12 12 12 14 14 13 13 13 14 14 15 16 16 15 14 12 10 9 11 11 10 10 10 9 9 9 8 8 8 7 7 7 7 6 5 5 6 7 8 9 10 11 12
7 6 6 7 6 6 7 9 10 12 10 7 7 8 7 7 6 6 6 5 4 4 5 5 6 5 5 5 6 6 6 4 4 4 4 4 5 6 6 7 9 10 11 12 12 12 12 12 12 13 14 14 15 16 16 15 15 14 12 11 11 11 11 10 11 10 9 9 9 9 9 8 7 8 8 8 7 6 6 6 7 8 10 11 11 11
3 3 5 10 9 7 6 6 5 7 7 7 7 7 6 6 6 4 4 3 3 3 4 4 4 5 5 6 7 7 7 6 5 5 4 5 6 6 7 8 9 9 10 11 12 12 11 11 11 13 14 15 16 16 15 15 14 13 12 12 12 12 11 11 10 9 9 9 9 9 9 9 7 8 8 8 8 7 7 7 7 8 10 11 12 12
5 5 6 7 8 9 10 9 6 6 6 5 6 5 4 4 5 4 4 4 3 3 3 3 3 4 5 6 6 7 7 7 7 6 6 5 5 6 7 8 9 9 10 11 12 13 13 12 12 14 14 15 16 16 15 15 14 13 13 13 12 12 11 11 11 10 9 9 10 9 9 9 9 9 9 9 8 6 6 6 7 7 9 11 11 11
5 7 7 6 7 7 6 5 5 7 6 3 3 4 4 4 3 3 4 4 3 2 2 3 2 3 4 6 6 7 8 7 6 6 6 5 5 6 8 9 9 10 10 11 11 13 13 13 14 15 14 13 14 15 15 15 14 14 13 13 13 12 12 12 11 10 9 9 10 9 9 10 10 10 10 9 8 6 6 6 6 6 6 9 11 12
7 5 4 6 8 6 5 6 5 5 4 2 2 4 3 2 2 4 4 3 3 2 3 4 4 4 3 3 6 8 9 7 6 6 6 6 6 7 8 10 11 11 12 12 12 13 14 14 14 15 14 13 14 15 15 15 15 14 14 14 13 13 13 12 11 10 9 9 9 9 10 11 10 11 11 9 7 7 7 7 7 7 7 8 10 11
Wind_Direction
232 199 195 220 189 65 29 346 333 355 332 280 247 241 242 240 222 169 53 49 232 242 229 223 230 217 188 179 179 180 181 177 170 170 170 168 170 178 176 168 162 149 132 134 131 107 88 71 64 66 71 84 88 70 62 75 78 63 44 271 260 253 252 241 223 223 220 218 223 224 221 218 217 216 214 215 219 224 231 230 227 229 228 227 222 217
232 215 120 13 10 18 7 357 320 275 238 252 248 239 224 233 223 109 51 285 218 237 227 215 228 216 187 182 179 179 182 179 175 174 175 179 181 184 179 165 156 152 150 149 136 117 100 82 72 75 76 69 70 69 42 30 45 341 294 263 251 245 252 253 244 237 230 225 227 226 225 227 226 229 230 227 225 224 230 238 237 237 234 230 226 221
199 106 72 35 16 29 291 211 236 231 231 238 240 247 236 233 244 145 163 225 203 228 222 203 219 210 182 187 183 184 187 180 179 179 178 182 183 187 180 160 157 160 154 150 135 117 103 90 85 85 81 73 69 68 56 42 35 12 320 285 265 251 240 246 250 245 238 234 233 232 232 234 235 237 239 239 236 228 227 234 242 245 242 235 228 224
152 86 61 40 17 218 170 159 225 218 219 242 244 249 245 237 267 231 165 165 193 227 245 206 209 195 175 194 190 190 188 176 188 186 177 186 190 190 181 162 164 162 152 145 128 113 107 104 99 90 86 85 80 74 67 53 45 39 14 351 302 264 247 244 245 244 242 240 240 240 240 241 243 244 244 247 245 237 235 238 244 245 241 237 230 225
85 79 55 22 233 245 203 176 228 239 223 239 264 275 273 256 275 288 107 149 184 211 236 210 208 194 187 202 190 187 190 179 188 186 178 189 194 192 182 170 168 160 152 141 125 119 116 111 107 104 102 99 93 84 71 58 52 44 24 11 339 282 254 248 247 245 239 237 237 239 240 239 242 245 245 248 248 244 241 242 244 244 241 237 231 226
92 82 291 215 201 238 244 222 233 273 260 229 257 317 312 285 270 269 180 198 209 209 207 209 225 209 192 204 191 182 194 186 186 188 187 190 187 188 188 179 175 165 154 138 130 129 122 117 122 123 120 115 107 94 81 71 64 49 33 12 339 302 257 247 247 246 241 237 235 231 228 225 229 237 237 239 242 242 241 240 242 245 244 239 231 227
104 115 256 238 226 226 247 253 171 277 272 242 207 348 302 275 254 239 229 239 251 234 184 208 241 223 188 202 192 185 200 195 190 192 194 195 187 186 189 180 175 171 157 145 145 141 133 136 137 130 125 119 111 106 102 94 88 82 63 25 341 323 281 255 236 235 238 239 237 233 230 228 230 234 238 241 241 242 243 242 244 245 246 245 237 230
123 160 203 233 250 238 243 254 136 256 271 273 76 289 270 264 254 252 253 255 270 350 163 209 241 246 210 204 189 185 199 200 198 198 199 202 195 189 188 179 174 172 161 154 157 151 144 145 144 134 128 124 121 124 126 118 105 91 73 38 312 311 297 269 246 232 231 234 236 236 232 230 233 236 243 249 248 248 247 246 249 245 243 247 247 239
144 221 222 249 254 250 255 286 53 263 268 330 43 269 265 268 263 263 262 260 259 260 234 206 215 244 239 197 182 188 202 206 202 199 200 202 197 192 189 180 175 171 164 162 160 155 151 151 153 149 140 137 138 142 139 128 111 90 77 57 22 296 281 278 265 247 241 239 239 240 233 230 233 235 241 247 248 251 250 247 248 246 241 243 248 246
112 339 343 290 268 275 299 7 307 265 268 28 310 246 241 249 252 254 255 256 244 240 254 224 197 233 243 184 175 196 211 214 205 200 203 202 196 192 189 183 179 173 168 167 161 156 157 156 158 162 160 161 159 157 148 128 115 99 84 59 49 20 308 292 281 264 254 248 244 244 238 234 237 237 237 240 243 245 248 246 243 244 244 241 243 245
99 105 282 272 286 318 320 272 225 284 287 221 237 239 237 241 243 249 252 255 252 236 250 246 218 233 250 210 187 197 214 220 207 204 208 203 199 194 191 188 181 176 172 170 165 160 159 159 162 172 176 177 173 167 157 134 121 112 90 62 53 38 358 314 296 281 266 257 249 245 240 236 237 237 235 235 237 237 241 243 241 245 247 241 238 239
193 204 202 205 300 304 265 235 209 230 242 230 240 245 247 246 234 243 242 231 249 247 239 241 226 230 249 242 208 181 200 218 211 211 212 206 203 196 192 191 183 180 176 172 170 163 163 165 170 181 183 178 177 171 161 141 128 123 110 82 52 40 16 328 305 294 279 265 255 245 240 238 235 235 236 234 235 235 235 237 239 242 243 239 236 234
226 207 159 156 187 257 253 242 211 213 225 228 240 245 245 246 227 234 240 226 244 248 210 203 221 232 246 254 246 171 186 216 215 220 224 217 214 205 193 190 184 182 179 176 174 167 168 172 176 183 182 177 179 173 163 146 133 126 117 92 48 49 26 329 302 292 283 271 260 248 239 238 237 236 237 237 236 236 234 233 234 236 237 235 233 229
251 164 181 197 165 195 254 255 233 224 224 225 234 240 242 251 246 241 241 239 247 235 174 161 226 249 255 252 237 202 189 215 212 227 239 234 229 219 201 192 185 182 181 178 176 170 171 176 177 181 180 179 182 175 164 149 136 126 110 86 31 32 299 289 284 280 277 270 264 254 242 238 241 240 240 240 239 238 237 234 234 236 236 235 234 230
284 230 181 197 125 198 250 272 289 272 245 238 242 245 250 253 252 254 255 257 262 246 191 167 212 252 259 227 147 171 169 166 231 240 244 241 236 227 210 200 193 187 183 177 175 173 172 174 177 180 182 184 182 173 166 156 146 135 105 63 3 329 289 279 278 280 285 283 277 268 254 242 241 244 245 243 242 241 239 238 239 241 239 237 237 235
279 274 113 82 15 269 266 306 299 273 245 236 242 245 257 261 236 246 276 300 309 287 244 202 228 256 232 142 144 166 201 214 230 235 230 230 224 218 212 208 202 195 188 180 175 174 171 172 177 181 186 187 181 176 171 163 152 139 111 48 325 309 299 292 291 290 294 293 290 288 277 261 252 250 249 247 244 241 240 240 242 244 243 239 237 235
273 257 120 136 193 195 300 309 246 272 266 207 224 235 273 343 283 264 256 291 292 272 261 239 246 252 232 207 187 191 217 220 220 226 226 223 213 209 207 205 203 199 193 185 176 172 171 173 179 185 186 182 179 183 178 162 146 137 140 277 283 283 282 286 292 291 289 290 294 295 288 281 272 263 259 256 251 247 245 244 245 246 247 244 240 237
283 270 146 181 214 136 31 279 216 259 282 256 238 237 63 9 284 271 259 240 242 254 255 246 251 256 258 243 174 188 232 233 223 224 228 222 211 211 210 207 204 198 194 188 176 170 171 174 179 185 184 179 182 187 173 154 146 157 194 246 260 267 276 281 285 284 282 286 294 295 290 287 280 270 267 265 259 255 251 248 246 246 247 247 245 243
268 274 164 175 223 143 169 240 213 184 239 270 306 341 274 264 241 230 244 259 259 262 262 256 257 256 256 248 201 214 239 243 235 222 233 237 222 218 217 211 205 195 192 190 180 170 169 175 180 182 181 182 185 184 165 159 176 196 216 233 245 258 272 277 277 279 280 283 291 294 292 293 292 282 274 268 262 256 252 249 248 248 248 247 246 247
212 274 214 163 186 180 204 232 226 187 185 228 262 236 236 272 270 245 251 264 267 270 274 272 267 259 259 256 240 254 263 275 281 266 257 256 240 228 220 210 205 196 193 192 182 171 171 178 181 179 183 188 183 174 166 179 205 222 231 236 240 251 265 270 273 278 280 280 287 295 297 301 304 300 294 285 268 257 253 251 249 250 251 250 249 248
191 254 263 167 162 215 231 220 247 256 215 211 227 220 215 227 253 267 265 258 266 274 277 278 272 270 350 76 54 298 297 299 303 292 277 270 258 239 219 207 202 195 195 195 185 175 174 178 179 178 188 194 180 171 182 197 213 224 230 236 240 247 257 264 268 273 275 276 282 293 302 305 307 308 309 305 287 268 259 254 249 249 249 249 249 248
209 232 257 228 202 229 231 84 318 292 287 271 258 244 244 239 242 257 252 241 250 267 273 278 278 280 63 79 330 301 300 311 320 307 296 285 269 243 216 205 199 195 199 198 190 184 177 175 178 182 190 193 182 187 202 208 215 221 223 226 236 248 261 272 272 268 270 275 282 290 299 304 306 310 313 309 297 282 274 269 262 255 250 247 248 249
233 247 250 254 254 263 61 89 272 285 280 274 270 265 266 259 250 255 260 261 258 260 267 272 274 278 105 112 289 285 254 310 333 324 315 306 282 240 215 204 199 199 201 199 195 190 181 177 181 186 190 188 191 203 208 209 215 221 222 223 229 241 263 279 273 265 265 272 280 287 292 297 301 307 311 310 302 294 290 288 283 273 263 255 251 249
191 242 245 255 253 242 174 156 190 225 245 249 244 242 249 252 255 261 276 292 281 267 271 269 268 273 132 144 206 220 221 265 287 297 301 302 288 235 215 205 201 199 198 199 199 193 185 181 183 189 190 191 200 207 207 209 218 223 223 226 233 241 257 271 269 264 264 268 276 283 289 293 294 300 308 310 306 300 298 297 293 284 275 267 261 254
194 225 235 255 249 223 208 200 193 196 221 242 239 229 236 248 255 260 267 272 264 264 271 271 272 281 133 144 184 217 233 263 277 273 273 280 275 242 215 205 202 198 195 196 197 195 189 186 190 194 195 200 206 207 208 214 222 226 227 230 239 247 256 265 266 268 272 272 274 279 284 287 288 292 297 303 304 300 302 304 303 295 284 279 275 266
211 229 221 248 257 242 242 254 262 228 224 236 241 236 236 241 242 247 258 255 251 261 266 262 272 287 275 191 230 258 259 268 279 270 252 251 255 248 228 211 205 201 199 196 196 197 193 192 199 200 200 207 211 209 213 218 222 229 233 233 237 244 254 260 262 268 275 277 276 277 278 279 280 282 283 290 298 300 303 310 314 313 303 294 286 277
232 242 231 248 259 264 276 294 323 306 266 249 241 236 233 235 238 244 253 254 257 270 267 262 274 285 285 281 279 280 276 274 275 264 246 237 236 238 231 218 211 209 206 201 200 202 199 199 203 203 204 211 214 213 217 220 222 229 234 233 234 239 248 254 260 267 273 276 277 278 278 274 274 274 276 287 298 301 307 317 328 330 325 320 308 293
235 238 232 245 254 263 277 283 283 270 263 263 258 249 239 232 235 240 245 254 267 275 268 271 284 284 284 290 289 285 282 278 273 262 255 253 246 237 229 219 215 215 212 207 205 205 205 203 201 202 205 211 215 214 215 221 227 230 232 233 235 240 243 245 255 266 272 275 276 278 278 275 274 274 278 290 295 306 324 335 343 345 343 343 335 323
242 247 228 235 252 260 266 271 269 260 258 261 261 259 253 241 237 239 245 252 259 264 267 279 288 285 287 293 293 293 291 283 281 277 271 263 251 238 227 220 217 216 214 211 209 208 207 205 202 202 204 208 214 213 211 221 229 230 231 233 237 244 244 240 248 261 268 270 271 274 275 271 277 293 299 290 283 302 328 333 342 348 351 354 351 345
246 248 211 228 257 264 260 260 261 259 260 260 256 255 254 250 246 245 247 251 254 259 265 274 280 283 287 290 290 294 294 284 281 276 264 252 245 238 228 223 221 218 215 212 210 207 207 207 205 203 201 204 211 210 208 218 226 226 229 233 237 242 239 233 241 254 260 262 264 265 263 258 272 296 301 296 292 301 313 316 324 332 342 357 1 355
230 223 186 218 258 264 255 250 248 254 263 266 261 256 252 251 250 247 247 249 252 257 261 267 274 279 282 284 280 275 270 265 257 254 252 248 243 235 229 226 224 221 217 214 211 208 207 209 207 203 201 204 208 208 211 219 224 225 229 232 234 236 231 229 238 247 251 256 256 252 251 249 256 271 280 288 294 303 310 312 316 315 322 352 5 2
215 226 203 222 256 265 252 244 253 259 263 265 264 258 251 248 247 244 243 241 244 252 259 264 268 274 283 289 280 267 260 255 250 250 252 247 237 232 233 232 227 222 218 214 211 207 206 207 206 204 204 205 206 208 214 220 222 225 228 229 230 231 229 229 237 243 246 250 248 244 248 251 256 266 276 284 291 301 308 308 312 312 312 347 11 10
214 229 232 230 252 266 252 247 268 274 266 265 263 253 248 246 244 244 242 238 238 245 256 262 263 274 290 297 286 277 268 258 254 256 258 252 241 235 237 238 232 223 217 213 209 207 206 206 205 206 208 209 208 210 217 221 222 223 223 221 220 220 222 227 234 241 245 247 245 246 254 263 267 272 279 290 295 299 300 298 306 314 316 8 36 11
219 230 244 238 247 265 266 260 272 270 263 262 212 173 237 251 252 254 252 246 240 238 243 254 263 273 281 282 282 283 281 274 267 261 262 258 248 241 241 241 237 226 217 212 207 205 204 204 207 208 209 211 210 211 217 221 220 217 214 212 210 210 217 228 233 237 242 246 247 251 260 268 275 282 287 296 300 298 294 292 307 308 301 16 52 343
221 226 238 240 245 267 284 279 265 265 265 263 175 211 262 275 268 266 264 258 252 246 244 251 260 268 273 276 281 283 282 282 275 260 254 249 242 245 246 240 234 226 218 211 206 204 203 204 208 208 208 209 208 206 211 215 212 207 205 206 207 209 218 229 234 233 237 244 249 255 264 271 279 289 296 300 300 295 288 291 336 299 275 27 73 95
225 223 232 243 242 252 267 257 256 272 299 284 262 239 168 246 246 251 263 260 254 249 246 248 256 263 269 276 281 283 284 284 273 256 246 235 229 234 241 239 229 221 216 210 204 203 204 205 206 207 206 206 204 202 204 205 202 200 203 206 209 214 218 227 236 235 232 240 250 256 265 275 285 294 302 305 300 292 286 303 27 285 240 159 139 119
229 225 226 237 234 238 254 254 263 281 286 277 265 220 163 200 213 279 299 284 265 253 242 242 252 258 265 273 281 287 279 264 258 244 223 218 218 219 228 236 223 212 211 208 203 202 203 203 204 206 205 202 200 202 203 200 198 202 207 209 214 217 217 224 239 240 234 239 250 256 266 279 291 299 304 305 296 285 288 339 68 210 210 175 154 132
230 227 220 228 219 213 250 263 267 270 272 277 217 154 151 147 87 0 310 294 269 243 230 232 241 250 261 263 253 231 223 243 257 238 173 194 206 203 210 216 208 204 202 199 199 201 202 202 202 201 199 197 199 202 203 201 201 205 209 210 214 218 220 227 240 243 239 243 248 252 267 283 295 305 307 301 284 274 292 306 201 186 191 173 149 130
224 224 222 232 227 210 238 259 259 259 272 290 211 162 154 139 99 307 294 287 164 142 169 200 213 249 280 256 193 200 229 254 270 35 108 176 198 195 200 198 196 201 198 195 197 199 199 199 199 197 196 197 200 203 205 205 204 207 211 212 213 218 224 232 241 242 243 246 241 232 260 289 293 304 305 294 266 250 276 238 185 181 174 161 144 128
213 222 224 229 231 226 234 249 255 259 264 267 232 166 150 135 21 295 280 258 121 127 149 165 155 331 272 182 188 220 255 282 313 46 68 93 190 192 200 195 192 197 197 196 197 196 194 194 193 194 195 198 202 204 204 203 204 209 214 214 215 220 227 236 242 243 245 245 227 198 200 275 283 288 285 272 243 207 201 156 159 170 169 160 151 135
205 218 224 229 232 230 230 242 257 262 253 244 233 185 150 136 283 265 256 117 106 132 167 170 159 133 150 170 222 253 290 340 14 57 69 49 190 193 202 198 192 196 198 195 189 186 188 189 191 195 197 200 204 205 203 201 204 211 214 213 214 221 231 240 242 240 240 240 229 206 191 227 273 272 251 245 230 197 183 163 156 163 167 162 152 142
212 214 220 228 235 232 230 240 254 260 259 249 228 183 160 185 246 241 242 47 74 147 200 193 188 170 166 185 269 301 345 45 93 179 211 234 228 201 194 191 189 191 191 183 176 180 187 188 192 198 202 203 205 203 199 199 202 208 209 209 213 223 235 240 235 232 232 232 233 227 206 190 228 245 236 232 222 195 178 170 160 160 164 157 146 141
212 211 222 221 222 231 234 233 246 259 221 155 154 155 171 208 247 273 343 24 77 162 233 212 188 198 212 222 268 289 300 266 216 229 230 230 232 211 195 196 195 190 186 183 183 187 191 192 192 196 199 198 197 196 192 192 197 202 204 209 217 226 234 231 225 226 228 227 229 230 217 195 191 208 222 221 210 189 174 170 169 169 165 152 144 143
207 211 236 225 201 217 227 218 229 255 166 154 163 174 194 210 246 0 312 276 294 291 272 256 248 240 242 265 279 268 263 252 233 234 231 229 226 213 202 203 204 199 193 192 192 189 192 195 193 192 192 190 190 191 189 191 197 200 199 206 215 218 216 214 216 221 222 221 224 223 216 199 187 193 206 205 195 185 172 170 176 179 171 157 149 148
212 215 252 253 210 220 243 242 239 252 176 179 207 236 208 215 234 275 277 278 280 279 279 277 268 247 233 257 273 268 259 249 232 229 229 221 215 210 205 204 207 206 199 197 195 189 191 196 193 187 186 186 187 188 188 193 197 193 194 206 210 203 202 205 208 211 215 222 224 218 212 202 190 191 197 194 193 187 173 178 185 178 169 163 155 151
249 246 268 271 231 229 249 259 251 243 216 203 223 238 232 238 248 253 261 269 271 275 279 277 272 262 238 240 252 256 258 254 233 218 212 207 205 204 204 205 205 202 199 197 194 190 193 198 193 186 182 180 182 185 187 191 192 189 196 208 204 198 201 204 203 206 215 224 222 211 206 205 197 194 194 194 201 195 176 184 189 175 167 167 161 155
251 248 248 250 238 223 236 244 241 239 236 228 231 235 233 240 248 248 251 256 272 288 288 281 275 263 243 235 239 247 256 257 244 226 205 196 198 198 203 209 204 197 197 196 190 186 191 195 192 188 184 177 178 182 183 186 191 194 200 203 199 199 201 201 203 207 212 217 213 203 204 204 196 192 193 195 203 200 183 184 187 175 170 170 166 163
274 293 255 239 234 232 244 251 244 240 240 235 239 241 230 217 212 209 221 237 262 278 282 283 272 255 240 232 230 238 246 246 240 234 214 197 194 193 199 205 202 196 193 189 182 181 189 197 196 191 184 175 174 178 181 187 196 200 198 195 196 199 197 196 202 208 211 211 207 202 203 200 191 192 196 195 202 203 189 180 185 185 181 176 171 170
314 305 267 243 237 238 246 250 246 248 248 229 219 222 207 181 174 174 190 215 237 255 273 277 257 247 248 242 233 234 240 239 236 235 229 213 196 191 194 195 195 192 187 182 179 180 189 199 196 189 184 177 175 178 184 190 195 192 188 189 193 195 194 193 197 205 209 208 205 203 205 202 196 198 201 197 197 197 183 173 178 183 183 184 184 179
262 268 269 261 240 231 246 270 268 261 257 221 184 198 186 165 176 195 198 207 227 260 299 307 292 265 252 246 238 235 239 242 234 226 229 228 209 195 191 187 185 186 184 183 182 183 189 194 190 188 188 183 180 183 188 190 191 187 186 190 193 194 193 190 193 201 205 204 203 204 205 205 199 196 198 199 194 186 173 171 183 187 179 184 193 194
228 240 253 258 258 271 320 346 339 300 273 284 317 280 243 199 223 243 234 234 260 301 315 310 311 311 292 253 233 229 237 244 232 214 221 229 214 197 191 188 185 183 181 183 184 185 187 190 189 192 194 189 187 191 193 191 191 191 192 192 192 194 195 192 193 199 201 200 202 201 201 203 200 194 196 196 191 184 170 161 177 193 187 182 189 196